Flag Weather past 2 weeks in Zhengzhou, Henan, China

Now
45 °F

Fog.


Feels Like: 45 °F
Forecast: 42 / 57 °F
Wind: 1 mph from North

Location: Zhengzhou Airport

Current Time: Nov 25, 2014 at 9:00:37 AM

Latest Report: Nov 25, 2014 at 8:00 AM


Visibility: 1 mi

Pressure: 30.21 "Hg

Humidity: 76%

Dew point: 37 °F

Location of ZhengzhouLocation

Historic Weather in Zhengzhou — Graph

°F

Zhengzhou temperature yesterday

Maximum temperature yesterday: 52 °F (at 2:00 PM)
Minimum temperature yesterday: 46 °F (at 4:00 AM)
Average temperature yesterday: 48 °F

Past Weeks' High & Low Weather Summary

 TemperatureHumidityPressure
High68 °F (Nov 11, 1:00 PM)100% (Nov 10, 7:00 AM)30.54 "Hg (Nov 10, 7:00 AM)
Low32 °F (Nov 17, 6:00 AM)12% (Nov 12, 3:00 PM)30.01 "Hg (Nov 20, 2:00 PM)
Average50 °F58%30.26 "Hg
* Reported Nov 10 7:00 AM — Nov 25 7:00 AM, Zhengzhou, Weather by CustomWeather, © 2014

Note: Actual official high and low records may vary slightly from our data, if they occured in-between our weather recording intervals... More about our weather records

Advertising

Zhengzhou weather history for previous 24 hours

 ConditionsComfort  
Time TempWeatherWind HumidityBarometerVisibility
7:00 AM
Nov 25
45 °FFog.3 mph76%30.21 "Hg1 mi
6:00 AM45 °FHaze.1 mph71%30.18 "Hg1 mi
5:00 AM43 °FFog.1 mph81%30.18 "Hg1 mi
4:00 AM45 °FHaze.3 mph71%30.21 "Hg1 mi
3:00 AM45 °FHaze.3 mph71%30.21 "Hg1 mi
2:00 AM45 °FHaze.3 mph76%30.24 "Hg1 mi
1:00 AM46 °FHaze.6 mph71%30.24 "Hg1 mi
12:00 AM46 °FHaze.6 mph71%30.27 "Hg1 mi
11:00 PM
Nov 24
46 °FHaze.3 mph71%30.27 "Hg1 mi
10:00 PM46 °FHaze.6 mph71%30.27 "Hg1 mi
9:00 PM46 °FHaze.6 mph71%30.27 "Hg2 mi
8:00 PM48 °FHaze.6 mph66%30.27 "Hg2 mi
7:00 PM50 °FHaze.6 mph67%30.27 "Hg1 mi
6:00 PM50 °FHaze.6 mph67%30.27 "Hg1 mi
5:00 PM50 °FHaze.8 mph67%30.24 "Hg1 mi
4:00 PM50 °FHaze.8 mph67%30.24 "Hg2 mi
3:00 PM52 °FHaze.13 mph58%30.24 "Hg1 mi
2:00 PM52 °FHaze.13 mph58%30.24 "Hg1 mi
1:00 PM50 °FHaze.13 mph62%30.27 "Hg1 mi
12:00 PM50 °FHaze.10 mph67%30.30 "Hg1 mi
11:00 AM48 °FHaze.10 mph71%30.30 "Hg1 mi
10:00 AM48 °FHaze.10 mph71%30.30 "Hg1 mi
9:00 AM48 °FHaze.10 mph71%30.30 "Hg1 mi
Weather by CustomWeather, © 2014

See weather overviewHow to use our weather pages